{"data":{"norad_id":54811,"intl_designator":"2022-175BF","name":"STARLINK-5424","alt_names":[],"object_type":"PAYLOAD","status":"ACTIVE","operator":null,"country":"US","launch_date":"2022-12-17","launch_site_code":"AFETR","launch_vehicle":null,"mission":null,"orbit_class":"UNKNOWN","rcs_meters":null,"size_class":null,"mass_kg":null,"dimensions":null,"purposes":["comms"],"wikipedia_slug":null,"has_3d_model":false,"image_url":null,"decayed_at":null,"tle_current":{"epoch":"2026-05-25T02:20:10.925088Z","epoch_age_seconds":73449,"freshness":"FRESH","line1":"1 54811U 22175BF  26145.09734867  .00000698  00000+0  61957-4 0  9992","line2":"2 54811  53.2139  41.1583 0001488  88.4834 271.6329 15.08839886191739","mean_motion":15.08839886,"eccentricity":0.0001488,"inclination_deg":53.2139,"raan_deg":41.1583,"arg_perigee_deg":88.4834,"mean_anomaly_deg":271.6329,"bstar":6.1957e-5,"rev_number":19173,"period_min":95.437561888525,"perigee_km":538.71435676279,"apogee_km":540.77311807025,"semimajor_km":6917.8807374165,"source":"CELESTRAK","updated_at":"2026-05-25T13:38:17.717143Z"}}}